Location: Unspecified
(0.0000°N, 0.0000°E)
Time: 15:58:36
(UTC+02:00)

Cosmos 1954 Rocket - Visible Passes

Search period start: 23 July 2014 00:00
Search period end: 02 August 2014 00:00
Orbit: 754 x 783 km, 74.1° (Epoch: 22 July)

Date Brightness Start Highest point End Pass type
(mag) Time Alt. Az. Time Alt. Az. Time Alt. Az.
23 Jul 3.9 06:16:31 71° SSW 06:17:07 88° WNW 06:22:24 10° NNE visible
24 Jul 5.2 05:41:10 41° ENE 05:41:10 41° ENE 05:45:14 10° NNE visible
25 Jul 6.6 05:05:45 16° ENE 05:05:45 16° ENE 05:07:20 10° NE visible
25 Jul 5.4 06:46:05 21° WNW 06:46:05 21° WNW 06:49:02 10° NNW visible
26 Jul 5.4 06:10:36 27° NNW 06:10:36 27° NNW 06:13:10 10° N visible
27 Jul 6.1 05:35:03 20° NNE 05:35:03 20° NNE 05:36:33 10° NNE visible
